Regional Weather Roundup
Issued by NWS

Home | Current Version | Previous Version | Text Only | Print | Product List | Glossary On
Versions: 1 2 3 4 5 6 7 8 9 10 11 12 13 14 15 16 17 18 19 20 21 22 23 24 25 26 27
000
ASCA42 TJSJ 171010
RWRPR
PUERTO RICO/U.S. VIRGIN ISLANDS HOURLY WEATHER ROUNDUP
NATIONAL WEATHER SERVICE SAN JUAN PR
600 AM AST SUN DEC 17 2017

PRZ001>002-007>008-010-171100-
PUERTO RICO

CITY           SKY/WX    TMP DP  RH WIND       PRES   REMARKS
SAN JUAN LMM   PTCLDY    79  73  83 NE14      30.03R
$$

VIZ001>002-171100-
U.S. VIRGIN ISLANDS

CITY           SKY/WX    TMP DP  RH WIND       PRES   REMARKS
CHARLOTTE AMA  PTCLDY    79  72  78 NE8       30.01R
CHRISTIANSTED  CLEAR     77  70  78 NE10      30.01R
$$

HOURLY WEATHER ROUNDUP FOR THE NEWS MEDIA

CITY           SKY/WX    TMP DP  RH WIND       PRES   REMARKS
ORLANDO        CLEAR     57  54  89 CALM      30.23F
NEW YORK       CLOUDY    33  22  63 N8        30.28R WCI  26
NEWARK         CLOUDY    33  22  63 NE7       30.27S WCI  27
CHICAGO        CLOUDY    33  31  92 N7        30.05F FOG     WCI  27
HARTFORD       PTCLDY    18  12  77 CALM      30.23R
BOSTON         CLEAR     21   9  59 W14       30.23R WCI   8
DALLAS         CLOUDY    45  43  93 S7        30.03F
PHILADELPHIA   PTCLDY    31  25  78 E6        30.24S WCI  25
LOS ANGELES    CLEAR     59  27  29 N5        29.80S
WASHINGTON DC  CLOUDY    25  22  88 CALM      30.23S



USA.gov is the U.S. government's official web portal to all federal, state and local government web resources and services.